Dewpoint
46 49 52 53 53 54 53 54 54 56 58 56 52 50 54 57 59 59 57 55 52 50 50 48 47 44 42 41 41 36 35 33 33 32 33 32 33 32 29 29 28 28 28
45 48 49 50 51 53 55 55 55 56 57 54 51 51 53 56 58 58 57 55 52 50 49 47 45 43 43 41 38 35 31 31 34 35 34 34 33 31 31 28 28 30 28
45 47 49 50 51 51 53 53 54 55 56 54 51 55 56 56 57 56 56 55 52 50 48 47 44 44 41 37 36 35 32 33 35 37 35 32 27 28 29 31 29 29 28
45 46 50 51 52 52 52 53 53 54 56 56 53 54 53 53 55 56 55 52 51 49 46 45 44 42 35 32 32 33 36 36 36 35 34 33 28 21 21 29 29 30 27
44 46 47 50 53 53 53 55 55 55 55 56 55 54 54 54 54 54 51 50 48 47 44 42 40 37 33 33 32 37 39 39 35 34 34 31 28 27 24 22 19 22 24
44 45 47 49 50 53 54 55 56 55 55 56 57 55 54 55 54 51 48 46 44 43 41 39 38 36 33 36 40 42 41 38 35 33 29 25 26 26 25 22 20 20 22
43 45 46 48 50 52 54 55 56 55 55 56 57 57 56 56 54 51 48 45 43 41 41 39 38 38 38 41 41 42 41 36 35 31 28 30 28 25 23 23 21 21 22
41 44 46 47 49 52 54 56 55 55 55 56 56 56 56 55 53 51 48 46 43 42 41 40 41 37 41 41 42 43 38 37 34 34 34 29 29 28 27 25 23 22 19
33 38 42 46 49 51 54 56 55 56 55 56 57 56 56 55 53 51 49 48 44 42 42 43 40 39 42 42 44 40 37 35 36 36 35 32 28 30 29 28 25 23 21
37 37 40 42 46 50 52 55 56 55 55 56 57 57 56 55 54 52 49 46 44 42 41 40 38 41 42 44 41 37 36 35 36 35 32 31 28 27 28 25 24 24 23
37 42 42 43 44 48 51 53 55 55 55 56 57 57 57 56 53 52 50 48 47 43 40 39 41 41 42 39 37 35 31 36 34 34 31 29 27 25 25 25 25 24 24
37 43 45 46 47 49 50 51 53 53 54 55 56 57 57 55 54 53 52 49 47 41 39 41 39 35 36 34 33 30 31 33 35 31 30 27 25 27 28 27 26 25 24
36 43 48 48 49 50 51 52 53 53 54 55 54 55 55 54 53 51 49 46 42 41 41 38 33 33 32 30 32 33 36 39 35 30 28 28 28 28 28 28 26 24 23
39 41 47 49 50 51 52 53 53 54 53 52 52 52 52 52 51 50 48 46 43 41 37 35 33 33 30 29 34 39 40 39 34 31 31 30 29 28 29 28 27 26 25
42 45 46 49 50 51 51 51 52 51 50 49 49 49 50 49 48 47 46 44 42 38 35 34 34 33 33 38 41 40 39 36 32 32 31 31 31 31 30 28 27 27 25
41 42 42 42 42 44 46 48 48 48 47 47 46 46 46 44 43 41 39 37 35 34 34 33 36 38 40 40 40 39 38 35 32 31 30 29 31 32 33 32 30 27 26
36 37 39 41 42 43 44 44 44 45 45 44 43 43 42 41 40 38 35 34 33 35 34 37 37 38 38 40 38 36 34 36 35 32 30 28 26 28 30 32 31 27 22
34 36 37 38 39 40 40 41 40 41 40 40 40 40 40 38 36 35 35 36 37 38 38 39 37 36 37 39 35 37 37 37 31 29 27 26 26 26 27 29 28 26 26
35 36 37 37 37 37 38 38 38 37 37 37 37 37 37 37 37 36 37 38 37 37 37 37 37 37 39 36 37 38 33 29 28 27 27 26 26 27 29 27 27 27 26
35 35 36 36 36 36 37 37 37 37 37 37 37 37 37 37 37 38 38 38 38 38 38 38 37 37 37 37 36 32 31 29 28 28 27 27 28 28 29 27 27 27 26
34 35 35 35 36 36 37 36 36 36 36 37 37 37 37 38 38 38 38 37 36 36 35 34 32 31 31 30 31 31 30 30 30 29 28 28 29 28 29 27 28 29 28
34 34 34 35 35 35 36 35 36 36 36 36 36 35 35 33 32 31 29 27 27 28 28 30 29 30 30 30 31 31 31 30 30 30 31 31 31 30 28 29 27 28 28
33 34 34 34 35 35 35 34 34 32 31 28 27 27 27 27 27 28 27 26 26 27 27 25 25 24 25 24 27 24 24 24 25 27 30 31 31 31 30 29 28 28 28
32 32 31 30 30 30 29 29 28 27 27 26 26 25 24 23 22 20 17 17 19 19 17 18 18 18 19 19 21 19 19 19 21 22 24 25 25 31 32 32 30 29 29
31 30 30 30 28 28 28 27 26 25 24 23 21 20 19 14 13 12 15 15 18 19 17 18 17 19 19 19 18 18 19 19 20 21 24 23 22 21 27 30 32 33 31
29 29 29 27 26 25 24 23 22 22 20 17 15 17 16 15 11 10 11 19 19 18 18 18 18 17 17 16 16 16 17 17 17 17 20 24 25 25 22 23 29 32 32
Wind_Speed
16 17 18 20 21 22 22 22 22 19 16 15 15 14 15 13 11 10 12 13 12 14 13 10 11 9 9 7 7 7 5 3 2 4 6 6 6 6 6 6 5 4 4
18 19 19 20 20 21 22 22 22 21 19 16 15 13 14 13 12 11 12 14 14 15 14 13 12 11 9 9 8 7 5 4 5 5 7 8 7 8 9 7 6 5 5
20 20 21 22 23 24 24 23 22 21 19 19 17 12 10 8 12 12 12 15 16 16 14 15 14 13 11 10 11 11 10 7 6 10 7 6 8 2 9 10 8 6 8
20 22 24 25 26 26 24 23 23 23 21 21 19 20 18 16 14 12 14 15 16 16 16 16 15 15 12 12 12 11 11 10 8 6 10 8 6 6 7 8 8 8 9
23 24 24 24 24 24 26 24 24 24 22 22 22 21 21 16 14 14 17 16 15 16 17 16 15 14 12 11 12 11 10 9 7 8 5 7 6 6 8 12 8 6 9
27 27 25 24 24 24 25 25 26 25 24 24 25 24 22 19 16 18 19 17 14 12 16 17 16 14 12 12 11 10 9 9 8 7 7 8 7 8 9 11 11 10 8
26 27 27 27 26 27 27 26 27 28 26 26 26 26 24 20 22 20 18 16 17 14 16 14 13 11 12 13 13 9 7 11 10 8 8 7 7 7 8 9 11 11 9
24 29 30 29 27 27 28 27 27 28 27 27 27 23 22 19 19 18 15 14 14 13 16 15 16 16 13 13 8 9 11 12 9 8 9 8 8 7 8 9 10 12 13
15 20 22 25 25 25 27 29 28 26 27 28 24 24 22 23 20 19 18 16 17 17 17 17 17 13 12 13 11 13 12 10 10 10 11 10 8 7 8 9 10 11 15
4 8 12 15 18 21 21 22 24 26 24 22 21 22 22 21 17 15 18 16 17 18 19 18 15 12 11 10 15 13 11 11 8 11 11 10 8 9 10 11 11 12 14
1 2 5 7 11 13 16 18 20 21 20 21 19 20 19 14 14 17 17 18 19 20 19 20 19 18 13 16 13 11 10 10 10 11 13 13 11 10 11 11 12 13 14
2 1 3 7 9 10 11 13 14 16 16 14 13 14 13 15 17 17 15 15 16 14 18 19 19 17 16 13 12 12 6 4 13 17 16 15 13 14 14 13 15 15 15
2 4 5 6 8 8 7 7 8 8 8 6 8 11 11 11 12 12 11 12 16 17 17 18 19 16 16 15 13 8 3 8 18 17 18 17 18 19 18 17 16 16 15
3 4 7 6 6 6 6 6 5 4 4 6 7 8 9 9 10 10 12 14 15 17 18 18 17 16 16 13 9 4 7 14 16 16 19 19 21 22 21 20 19 17 16
5 6 7 8 9 9 8 7 7 6 5 5 5 4 4 4 5 7 8 8 10 11 13 14 12 14 12 9 5 3 10 14 17 19 21 23 24 24 24 22 20 18 17
11 11 12 13 12 11 11 10 9 8 6 6 6 5 4 4 4 5 7 10 12 13 14 13 14 11 7 8 2 9 12 17 19 21 21 22 23 24 26 28 25 18 18
14 14 13 13 13 13 12 13 12 10 10 9 8 7 6 7 7 8 9 10 11 13 13 12 11 10 7 5 9 11 11 16 20 21 22 22 21 20 22 23 23 21 19
14 13 13 13 13 13 14 14 14 14 14 13 12 10 10 10 10 11 11 13 14 14 15 12 10 8 12 11 11 14 12 18 21 23 24 24 25 24 20 23 21 22 19
13 12 12 13 13 14 14 16 17 16 16 16 15 14 13 13 12 12 11 10 10 8 7 5 8 12 15 10 16 15 15 19 22 21 21 22 23 22 19 23 23 22 19
13 14 13 14 15 14 14 17 17 17 18 16 16 15 14 13 12 9 7 4 2 1 1 2 5 9 11 15 14 14 16 20 19 21 22 21 22 23 18 23 24 23 21
15 14 14 15 15 14 16 19 19 19 17 16 15 13 12 11 9 8 7 5 3 1 2 5 7 10 11 13 12 13 15 17 20 21 22 19 17 22 21 25 24 24 20
16 15 17 17 16 16 17 19 18 14 13 13 12 12 10 8 6 4 4 3 3 4 5 6 8 8 10 8 10 12 13 16 19 22 22 22 21 20 24 25 27 24 19
17 16 18 19 16 15 15 17 14 12 12 12 11 10 9 8 7 6 5 4 5 6 7 8 10 11 12 13 12 19 24 23 21 20 23 29 29 28 24 28 31 27 22
19 19 19 19 17 15 14 15 13 11 11 12 10 9 8 6 6 5 5 5 6 7 7 8 10 11 12 13 16 19 21 21 22 22 23 24 26 25 25 22 24 26 25
20 18 18 18 18 16 15 13 11 11 11 10 8 7 6 6 5 6 6 6 8 8 8 8 10 11 12 13 19 21 20 21 23 27 23 22 22 22 23 21 21 19 23
20 19 19 19 17 16 14 12 10 9 9 9 7 6 5 5 5 5 2 10 6 6 7 8 9 11 11 18 22 22 23 26 24 22 20 20 20 21 23 23 22 19 20
Wind_Direction
187 189 193 188 190 196 197 199 199 203 202 199 193 192 197 195 200 193 191 188 186 186 187 169 174 184 182 166 145 142 162 159 190 241 228 233 229 223 224 220 222 201 246
193 195 195 196 201 195 199 202 202 202 205 202 203 204 206 201 207 197 195 195 190 192 185 182 180 191 170 160 157 167 174 188 203 274 296 290 217 212 225 228 227 229 256
203 201 205 205 205 208 205 207 207 206 206 208 200 196 191 199 200 204 193 204 197 193 188 189 185 180 181 173 177 185 188 199 207 242 287 296 282 338 176 217 238 237 251
210 209 208 210 211 211 211 213 213 211 206 207 204 202 206 209 209 208 205 200 197 194 195 193 188 179 180 183 184 184 190 205 213 220 255 271 293 276 269 192 214 230 255
214 217 215 212 210 208 209 211 214 214 209 207 213 211 219 218 204 199 207 204 197 197 197 192 187 184 185 183 180 181 203 224 225 245 227 237 243 251 272 280 265 215 236
217 219 217 214 213 207 207 207 211 212 214 212 214 220 224 217 201 201 198 197 193 193 198 191 191 186 184 177 179 183 218 235 233 236 230 240 251 266 252 266 270 277 276
219 219 217 215 214 208 207 206 207 212 211 213 219 220 222 214 212 200 196 188 197 195 198 196 191 179 176 168 176 196 201 228 234 225 231 239 246 262 266 274 279 283 280
220 221 220 219 215 213 208 209 211 214 211 214 218 216 218 210 212 203 186 192 201 190 182 174 191 195 168 174 170 196 218 230 231 225 239 243 236 240 257 270 279 279 276
240 231 228 219 218 213 211 212 212 212 214 214 217 215 215 216 211 205 191 195 195 198 178 181 190 182 174 167 184 217 222 219 221 234 235 239 251 252 259 259 263 269 279
233 228 227 223 217 218 213 215 216 215 216 213 216 220 216 217 205 208 202 197 199 200 192 184 183 156 185 200 206 212 213 227 238 245 238 241 255 252 249 255 248 255 266
317 162 196 199 203 204 207 211 215 214 214 215 216 218 220 200 202 201 209 215 215 204 190 172 164 189 206 201 199 212 214 223 254 250 246 243 246 245 243 244 252 259 265
338 87 140 163 170 182 193 201 211 211 213 216 216 219 201 210 212 219 222 215 214 189 176 176 189 193 206 192 203 200 224 254 263 252 242 245 243 241 248 248 251 260 264
252 148 138 160 155 159 169 183 194 208 210 198 208 214 214 216 218 214 209 198 190 185 187 186 190 182 184 189 184 168 194 255 254 255 247 245 246 247 249 248 255 257 262
195 165 145 145 134 139 155 165 169 181 183 193 200 207 214 217 221 212 209 209 204 197 187 183 185 184 185 183 160 138 258 262 259 263 258 255 253 254 251 252 253 258 266
140 132 132 123 118 115 116 116 117 132 147 155 162 157 183 203 215 217 216 208 203 184 179 161 152 172 161 155 98 252 270 266 267 263 259 257 256 256 255 255 252 251 256
119 110 106 102 93 94 97 103 106 104 109 99 90 97 125 146 152 150 153 159 161 159 144 143 135 143 172 107 270 273 273 278 275 273 274 272 262 252 249 243 245 250 249
123 111 100 92 87 85 89 91 92 93 92 93 94 99 106 110 123 136 143 139 133 124 125 134 151 169 184 223 264 281 281 280 278 280 281 279 272 260 255 234 234 233 237
123 114 105 95 87 86 85 88 86 85 86 84 85 89 95 102 108 113 118 123 130 138 152 161 176 209 244 247 261 274 283 277 280 281 281 278 276 272 253 250 226 228 226
117 108 103 99 94 88 88 89 85 84 83 80 81 82 88 92 98 103 113 122 138 150 165 197 239 242 250 259 278 280 283 286 284 285 284 279 277 272 249 238 239 234 234
119 115 107 99 93 91 94 94 91 88 84 85 86 88 91 93 96 101 101 111 115 125 49 306 301 281 270 264 261 278 291 286 286 287 285 277 263 271 241 227 233 235 235
124 118 112 106 106 109 107 99 96 91 94 93 88 82 77 72 70 73 68 75 90 185 254 288 295 294 294 297 314 315 307 299 297 292 289 285 274 247 241 219 228 231 236
132 125 117 110 107 107 105 101 98 102 101 98 95 92 91 92 96 92 72 44 14 341 320 316 308 307 310 326 333 331 316 313 303 296 293 285 282 259 239 230 233 229 220
137 133 124 114 106 105 108 109 109 107 104 100 95 90 83 72 57 49 31 12 360 347 339 328 324 321 330 322 3 344 332 322 312 303 304 295 287 282 267 241 240 224 224
143 136 129 119 113 109 107 109 111 112 110 102 92 86 72 68 52 47 27 15 7 353 341 337 333 330 328 328 346 331 323 318 313 311 305 297 290 285 268 271 244 232 222
144 139 131 126 121 118 111 110 113 114 108 103 94 86 73 60 59 54 32 25 50 20 353 356 339 340 328 344 333 327 323 324 316 307 294 290 289 284 276 261 248 250 228
143 137 132 128 125 121 115 108 103 111 120 111 96 73 73 58 42 28 71 110 76 25 19 8 356 333 342 336 330 327 327 323 323 317 309 309 307 298 289 279 266 243 234